Melilla, Spain

11:08 AM CET on November 25, 2017 (GMT +0100)
Melilla

Weather History for GEML - December, 2012

Change the Weather History Date:

Monday, December 31, 2012

  Actual Average Record
Temperature  
Mean Temperature 53 °F -  
Max Temperature 60 °F 62 °F 77 °F (2001)
Min Temperature 46 °F 50 °F 41 °F (2014)
Degree Days  
Heating Degree Days 12    
Growing Degree Days 3 (Base 50)    
Moisture  
Dew Point 48 °F    
Average Humidity 77    
Maximum Humidity 94    
Minimum Humidity 54    
Precipitation  
Precipitation 0.00 in 0.06 in - ()
Sea Level Pressure  
Sea Level Pressure 30.30 in    
Wind  
Wind Speed 2 mph ()    
Max Wind Speed 7 mph    
Max Gust Speed -    
Visibility 7.9 miles    
Events      
Averages and records for this station are not official NWS values.
T = Trace of Precipitation, MM = Missing Value Source: Averaged Metar Reports

Daily Weather History Graph

Daily Weather History Graph

Search for Another Location

Airport or City:

Trip Planner

Search our weather history database for the weather conditions in past years. The results will help you decide how hot, cold, wet, or windy it might be!

Date:

Astronomy

Dec. 31, 2012 Rise Set
Actual Time 8:20 AM CET 6:09 PM CET
Civil Twilight 7:52 AM CET 6:37 PM CET
Nautical Twilight 7:20 AM CET 7:09 PM CET
Astronomical Twilight 6:49 AM CET 7:40 PM CET
Moon 9:18 PM CET (12/31) 10:00 AM CET (12/31)
Length of Visible Light 10h 45m
Length of Day
9h 49m
Waning Gibbous, 92% of the Moon is Illuminated
Dec 31
Waning Gibbous
Jan 5
Last Quarter
Jan 11
New
Jan 19
First Quarter
Jan 27
Full

Hourly Weather History & Observations

Time (CET) Temp. Dew Point Humidity Pressure Visibility Wind Dir Wind Speed Gust Speed Precip Events Conditions
6:00 AM 46.4 °F 44.6 °F 93% 30.36 in - Variable 2.3 mph - N/A   Clear
6:30 AM 46.4 °F 42.8 °F 87% 30.33 in - Variable 2.3 mph - N/A   Clear
7:00 AM 49 °F 46 °F 83% 30.35 in 19 mi West 2.3 mph - -  
7:00 AM 46.4 °F 44.6 °F 93% 30.33 in - West 2.3 mph - N/A   Clear
8:00 AM 46.4 °F 44.6 °F 93% 30.36 in 6.2 mi Variable 2.3 mph - N/A   Partly Cloudy
8:30 AM 48.2 °F 46.4 °F 93% 30.36 in 6.2 mi WSW 4.6 mph - N/A   Partly Cloudy
9:00 AM 46.4 °F 44.6 °F 93% 30.36 in 6.2 mi Variable 2.3 mph - N/A   Partly Cloudy
9:30 AM 48.2 °F 46.4 °F 93% 30.36 in 6.2 mi Calm Calm - N/A   Partly Cloudy
10:00 AM 51.8 °F 50.0 °F 94% 30.36 in 6.2 mi Calm Calm - N/A   Partly Cloudy
10:30 AM 55.4 °F 51.8 °F 88% 30.36 in 6.2 mi Calm Calm - N/A   Partly Cloudy
11:00 AM 57.2 °F 50.0 °F 77% 30.36 in 6.2 mi Variable 1.2 mph - N/A   Partly Cloudy
11:30 AM 59.0 °F 50.0 °F 72% 30.36 in 6.2 mi Variable 2.3 mph - N/A   Partly Cloudy
12:00 PM 59.0 °F 50.0 °F 72% 30.36 in 6.2 mi ESE 6.9 mph - N/A   Partly Cloudy
12:30 PM 59.0 °F 50.0 °F 72% 30.33 in 6.2 mi ESE 5.8 mph - N/A   Partly Cloudy
1:00 PM 60 °F 48 °F 54% 30.32 in 16 mi ESE 3.5 mph - -   Scattered Clouds
1:00 PM 60.8 °F 48.2 °F 63% 30.33 in 6.2 mi East 3.5 mph - N/A   Partly Cloudy
1:30 PM 60.8 °F 48.2 °F 63% 30.30 in 6.2 mi East 3.5 mph - N/A   Partly Cloudy
2:00 PM 59.0 °F 46.4 °F 63% 30.30 in 6.2 mi ENE 4.6 mph - N/A   Partly Cloudy
2:30 PM 59.0 °F 48.2 °F 67% 30.27 in 6.2 mi ENE 3.5 mph - N/A   Partly Cloudy
3:00 PM 59.0 °F 46.4 °F 63% 30.27 in 6.2 mi Variable 2.3 mph - N/A   Partly Cloudy
3:30 PM 59.0 °F 48.2 °F 67% 30.24 in 6.2 mi ENE 4.6 mph - N/A   Partly Cloudy
4:00 PM 59.0 °F 48.2 °F 67% 30.24 in - Variable 2.3 mph - N/A   Clear
4:30 PM 59.0 °F 46.4 °F 63% 30.24 in - ENE 3.5 mph - N/A   Clear
5:00 PM 59.0 °F 48.2 °F 67% 30.24 in - Variable 2.3 mph - N/A   Clear
5:30 PM 57.2 °F 48.2 °F 72% 30.24 in - Variable 2.3 mph - N/A   Clear
6:00 PM 57.2 °F 48.2 °F 72% 30.21 in - Variable 2.3 mph - N/A   Clear
6:30 PM 57.2 °F 48.2 °F 72% 30.21 in - Calm Calm - N/A   Clear
7:00 PM 54 °F 49 °F 76% 30.23 in 16 mi WSW 3.5 mph - -   Clear
7:00 PM 53.6 °F 48.2 °F 82% 30.21 in - WSW 4.6 mph - N/A   Clear
7:30 PM 53.6 °F 48.2 °F 82% 30.21 in - WSW 3.5 mph - N/A   Clear